KC3SRB Weather Reports


time (UTC)temp
F
wind
direction
speed
knots
gust
knots
rain 1hr
in
rain 24hr
in
rain mn
in
humidity
%
barometer
mb
20260507070054 51 0 0.0 2.6 0.01 0.41 0.01 78 1011.2
20260507064554 51 0 0.0 1.7 0.01 0.41 0.01 81 1011.1
20260507063051 52 0 0.0 2.6 0.01 0.41 0.01 78 1011.1
20260507061551 52 0 0.0 3.5 0.00 0.40 0.00 79 1011.1
20260507060049 52 283 0.9 3.5 0.00 0.40 0.00 81 1011.1
20260507054636 52 0 1.7 5.2 0.00 0.40 0.00 82 1011.0
20260507053053 52 257 0.0 2.6 0.00 0.40 0.00 83 1011.1
20260507051552 52 0 0.0 0.9 0.00 0.40 0.00 83 1011.1
20260507050057 53 0 0.0 3.5 0.00 0.40 0.00 83 1011.0
20260507044602 53 0 0.0 2.6 0.00 0.40 0.00 84 1011.3
20260507043100 53 96 1.7 5.2 0.00 0.40 0.00 83 1011.4
20260507041603 53 253 0.0 2.6 0.00 0.40 0.00 83 1011.2
20260507040058 54 120 0.9 4.3 0.00 0.40 0.00 82 1011.3
20260507034602 54 0 1.7 6.1 0.00 0.40 0.40 82 1011.1
20260507033101 54 288 1.7 5.2 0.00 0.40 0.40 82 1010.9
20260507031605 54 0 0.0 2.6 0.00 0.40 0.40 81 1010.2
20260507030057 55 239 1.7 6.1 0.00 0.40 0.40 81 1010.7
20260507024556 55 0 0.0 7.0 0.00 0.40 0.40 81 1010.6
20260507023103 56 242 1.7 6.1 0.00 0.40 0.40 80 1010.7
20260507021554 56 268 0.9 6.1 0.00 0.40 0.40 80 1010.6
20260507020056 57 246 0.9 8.7 0.00 0.40 0.40 78 1010.5
20260507014604 57 304 1.7 7.8 0.00 0.40 0.40 78 1010.6
20260507013047 58 235 0.9 5.2 0.00 0.40 0.40 79 1010.7
20260507011549 58 278 3.5 7.8 0.00 0.40 0.40 79 1010.3
20260507010049 58 0 2.6 8.7 0.00 0.40 0.40 79 1010.2
20260507004547 58 0 2.6 8.7 0.00 0.40 0.40 79 1010.0
20260507003051 58 267 0.9 7.0 0.00 0.40 0.40 80 1009.9
20260507001551 59 300 0.9 4.3 0.00 0.40 0.40 80 1009.5
20260507000051 59 15 0.9 7.8 0.00 0.40 0.40 80 1009.0
20260506234550 59 260 2.6 8.7 0.00 0.40 0.40 82 1008.8
20260506233108 59 340 1.7 7.0 0.00 0.40 0.40 84 1008.3
20260506231550 60 327 1.7 9.6 0.00 0.40 0.40 84 1008.3
20260506230053 61 0 1.7 7.0 0.02 0.40 0.40 85 1008.2
20260506224553 62 323 1.7 7.0 0.07 0.40 0.40 86 1008.2
20260506223102 63 323 2.6 6.1 0.07 0.40 0.40 86 1008.0
20260506221600 63 0 0.0 0.9 0.07 0.40 0.40 87 1007.8
20260506220056 64 0 0.9 5.2 0.05 0.38 0.38 86 1007.6
20260506214554 65 332 0.9 2.6 0.00 0.33 0.33 86 1007.4
20260506213111 65 214 0.9 4.3 0.00 0.33 0.33 86 1007.1
20260506211558 65 0 0.0 1.7 0.00 0.33 0.33 86 1006.9
20260506210056 65 0 0.0 3.5 0.00 0.33 0.33 86 1006.9
20260506204551 65 279 0.9 4.3 0.00 0.33 0.33 86 1007.0
20260506203050 65 305 0.9 2.6 0.00 0.33 0.33 86 1006.9
20260506201550 64 267 0.0 5.2 0.00 0.33 0.33 87 1006.8
20260506200053 64 346 0.9 3.5 0.00 0.33 0.33 88 1006.8
20260506194628 62 258 1.7 5.2 0.00 0.33 0.33 89 1007.0
20260506193102 62 0 0.9 3.5 0.00 0.33 0.33 90 1007.1
20260506191554 62 0 0.9 3.5 0.00 0.33 0.33 90 1007.2
20260506190052 61 269 0.9 2.6 0.00 0.33 0.33 91 1007.2
20260506184547 61 325 0.9 3.5 0.00 0.33 0.33 91 1007.3
20260506183051 60 319 0.9 3.5 0.01 0.33 0.33 91 1007.6
20260506181549 60 30 0.9 2.6 0.01 0.33 0.33 91 1007.6
20260506174555 60 0 0.0 6.1 0.03 0.33 0.33 90 1007.6
20260506173057 60 0 0.0 3.5 0.02 0.32 0.32 90 1007.6
20260506171557 60 286 0.0 3.5 0.02 0.32 0.32 90 1007.8
20260506170103 60 306 0.9 4.3 0.01 0.31 0.31 90 1007.8
20260506164557 59 277 1.7 3.5 0.00 0.30 0.30 90 1007.9
20260506163111 59 329 0.0 1.7 0.00 0.30 0.30 90 1008.0
20260506161606 59 0 0.0 6.1 0.00 0.30 0.30 89 1008.1
20260506160050 59 0 0.9 3.5 0.02 0.30 0.30 90 1008.0
20260506154609 59 0 0.9 2.6 0.06 0.30 0.30 90 1008.2
20260506153058 59 258 0.0 3.5 0.10 0.30 0.30 90 1007.9
20260506151558 59 255 0.0 3.5 0.15 0.30 0.30 89 1007.8
20260506150047 59 0 0.0 6.1 0.13 0.28 0.28 89 1008.0
20260506144548 59 120 1.7 4.3 0.10 0.23 0.23 89 1008.3
20260506143100 59 178 2.6 8.7 0.10 0.20 0.20 88 1008.8
20260506141549 60 261 0.9 4.3 0.07 0.15 0.15 88 1008.7
20260506140057 60 0 0.0 1.7 0.07 0.15 0.15 88 1008.3
20260506134550 60 275 0.0 2.6 0.06 0.13 0.13 88 1008.2
20260506133057 60 293 0.0 2.6 0.04 0.10 0.10 87 1008.3
20260506131553 60 296 0.9 5.2 0.03 0.08 0.08 87 1008.5
20260506130053 60 0 0.0 0.9 0.05 0.08 0.08 87 1008.4
20260506124552 60 66 0.0 0.9 0.06 0.07 0.07 86 1008.4
20260506123054 60 0 0.0 2.6 0.06 0.06 0.06 85 1008.7
20260506121553 61 273 0.9 4.3 0.05 0.05 0.05 83 1008.9
20260506120101 61 0 0.0 4.3 0.03 0.03 0.03 81 1009.1
20260506114606 62 311 0.0 3.5 0.01 0.01 0.01 78 1008.8
20260506113054 63 272 0.9 7.0 0.00 0.00 0.00 74 1008.3
20260506111554 64 0 0.0 3.5 0.00 0.00 0.00 72 1008.2
20260506110059 65 314 0.0 9.6 0.00 0.00 0.00 67 1008.1
20260506104553 66 283 2.6 6.1 0.00 0.00 0.00 64 1007.8
20260506103049 66 250 0.9 6.1 0.00 0.00 0.00 63 1007.6
20260506101602 66 298 1.7 5.2 0.00 0.00 0.00 62 1007.5
20260506100050 66 267 2.6 7.8 0.00 0.00 0.00 61 1007.4
20260506094615 66 0 0.9 6.1 0.00 0.00 0.00 61 1007.3
20260506093054 67 269 2.6 6.1 0.00 0.00 0.00 60 1007.4
20260506091550 67 282 0.9 10.4 0.00 0.00 0.00 59 1007.5
20260506090052 67 350 2.6 10.4 0.00 0.00 0.00 58 1007.6
20260506084552 67 304 2.6 9.6 0.00 0.00 0.00 58 1007.7
20260506083059 67 285 1.7 6.1 0.00 0.00 0.00 57 1007.6
20260506081552 67 302 3.5 9.6 0.00 0.00 0.00 56 1007.7
20260506073050 68 276 1.7 6.1 0.00 0.00 0.00 55 1007.8
20260506071550 68 307 0.9 7.8 0.00 0.00 0.00 54 1007.9